NOAA 9 [-]

Last updated on Fri Dec 29 2023 00:02:19 GMT+0000 (Coordinated Universal Time)

1 15427U 84123A 23361.95955288 .00000263 00000+0 15543-3 0 9994 2 15427 99.1078 350.2776 0015307 27.0914 352.4619 14.16479942 15669
UTC large
Height (km)
Speed (km/s)
/
Latitude / Longitude
Inclination (degrees)
Orbital Period (minutes)
Azimuth
Elevation
Range (km)
Doppler Factor

Next 0 passes for location: London (51.5072 / 0.1276)

Sorry there are no passes over London.